[[{"header":{"parameterUnit":"m.s-1","parameterCategory":1,"la1":30.2991,"la2":30.254,"lo1":-89.0895,"lo2":-89.0444,"dy":0.0017,"dx":0.0017,"nx":28,"ny":28,"refTime":"2024-06-01T21:00:00:Z","depth":0,"parameterNumber":2,"parameterNumberName":"U-component_of_WINDS"},"data":[0,0,0,0,0,0,0,0,0,0,0,0,0,0,0,0,0,0,0,0,0,0,0,0,0,0,0,0,0,0,0,0,0,0,0,0,0,0,0,0,0,0,0,0,0,0,0,0,0,0,0,0,0,0,0,0,0,0,2.0799,2.08,0,2.0896,2.0897,2.0898,2.0943,2.0943,2.0943,2.0943,2.1043,2.1046,2.1049,0,0,0,0,0,0,0,0,0,0,0,0,0,2.0654,2.0657,2.0799,2.08,2.0801,2.0896,2.0897,2.0899,2.0943,2.0943,2.0943,2.0943,2.1042,2.1045,2.1049,0,0,0,0,0,0,0,0,0,0,0,0,0,2.0731,2.0657,2.0799,2.0835,2.0839,2.0896,2.0897,2.0899,2.0943,2.0943,2.0943,2.0943,2.1041,2.1045,2.1049,2.1078,0,0,2.1062,2.1064,0,0,0,0,0,0,0,0,2.0726,2.0736,2.0828,2.0833,2.0837,2.0907,2.0883,2.0959,2.0943,2.0904,2.0943,2.0943,2.0998,2.1006,2.1024,2.1082,2.1087,2.1062,2.1065,2.1067,2.1068,0,0,0,0,0,0,0,2.0721,2.0732,2.0838,2.083,2.0835,2.0847,2.0858,2.0898,2.095,2.0907,2.091,2.0921,2.1001,2.102,2.1027,2.1088,2.1062,2.1066,2.1068,2.107,2.1176,2.1176,0,0,0,0,0,0,2.071,2.0727,2.0834,2.084,2.078,2.085,2.0862,2.0885,2.095,2.096,2.0921,2.0923,2.1013,2.1022,2.1031,2.1069,2.1067,2.107,2.1073,2.1175,2.1176,2.1176,0,0,0,0,0,0,2.0706,2.0719,2.0831,2.0785,2.08,2.0852,2.0878,2.0887,2.0907,2.0961,2.0971,2.0932,2.1013,2.1025,2.1066,2.1073,2.1072,2.1076,2.1175,2.1175,2.1176,2.1145,0,0,0,0,0,0,2.0702,2.0717,2.0728,2.0785,2.0802,2.0863,2.0879,2.0889,2.0914,2.0917,2.0973,2.0982,2.1014,2.1059,2.107,2.1079,2.1079,2.1175,2.1175,2.1176,2.1145,2.1144,2.1143,0,0,0,0,0,2.0697,2.0715,2.0728,2.0741,2.0817,2.0863,2.0874,2.091,2.0914,2.0926,2.0961,2.0981,2.1071,2.1063,2.1075,2.1085,2.1174,2.1175,2.1176,2.1146,2.1144,2.1143,0,0,0,0,0,0,2.0658,2.0723,2.0738,2.0776,2.0814,2.0871,2.0886,2.0907,2.0944,2.0946,2.0989,2.1002,2.1039,2.1067,2.1057,2.1117,2.1124,2.1127,2.1097,2.1096,2.1095,2.1088,2.1083,0,0,0,0,0,2.0654,2.0686,2.0741,2.0769,2.0787,2.0834,2.0855,2.088,2.0921,2.0937,2.0975,2.1015,2.1053,2.1076,2.1113,2.115,2.1163,2.1163,2.1162,2.1161,2.1163,2.1185,2.1186,2.1178,2.1178,2.1178,0,0,2.0645,2.0685,2.0702,2.0762,2.0795,2.0828,2.0847,2.088,2.0906,2.0943,2.0984,2.1013,2.106,2.1099,2.1118,2.1124,2.1168,2.1162,2.116,2.1163,2.1186,2.1187,2.1187,2.1179,2.1179,2.1179,0,0,2.0647,2.068,2.0707,2.0739,2.0788,2.0819,2.0825,2.088,2.0901,2.0942,2.0971,2.1002,2.1065,2.1098,2.1123,2.1139,2.1159,2.115,2.1143,2.1165,2.1165,2.1166,2.1172,2.1174,2.1152,2.1152,2.1152,0,2.063,2.068,2.0718,2.0751,2.0777,2.0812,2.084,2.087,2.0928,2.0946,2.0951,2.1031,2.1066,2.1113,2.1117,2.1136,2.1146,2.1143,2.1162,2.1163,2.1164,2.1171,2.1173,2.115,2.115,2.1151,2.1151,0,2.0658,2.0692,2.0709,2.0764,2.0792,2.0822,2.0865,2.0889,2.0912,2.0942,2.0985,2.1028,2.1075,2.1088,2.111,2.114,2.1141,2.1153,2.1162,2.1163,2.117,2.1172,2.1148,2.1149,2.1149,2.1149,0,0,2.0637,2.0714,2.0719,2.0745,2.0802,2.083,2.0862,2.0908,2.0928,2.0967,2.0996,2.105,2.1062,2.109,2.1117,2.1135,2.1146,2.1146,2.1147,2.1144,2.1181,2.1171,2.1173,2.116,2.116,2.1161,2.1177,0,2.0646,2.0705,2.0741,2.0785,2.0818,2.0853,2.0882,2.092,2.095,2.0983,2.1016,2.1053,2.1066,2.1084,2.1104,2.114,2.1154,2.1139,2.1187,2.1189,2.1174,2.1177,2.1167,2.118,2.118,2.1181,2.1181,0,2.0665,2.0703,2.0751,2.0805,2.082,2.0845,2.0891,2.0922,2.0967,2.0987,2.1019,2.1046,2.1083,2.1088,2.114,2.113,2.1152,2.1173,2.1174,2.118,2.1184,2.1183,2.1185,2.1187,2.1185,2.1185,2.1185,0,2.0645,2.0709,2.0746,2.0767,2.0831,2.0848,2.0876,2.092,2.0946,2.0986,2.1004,2.1048,2.1072,2.1106,2.1144,2.1144,2.1192,2.1201,2.1211,2.121,2.1219,2.1218,2.1225,2.1233,2.1233,2.1233,2.1233,0,2.0651,2.0679,2.0738,2.076,2.0793,2.0835,2.0867,2.0897,2.0937,2.0967,2.1,2.1028,2.1077,2.1111,2.1142,2.1181,2.1191,2.1209,2.1217,2.1206,2.1204,2.1221,2.1221,2.1234,2.1234,2.1233,2.1233,0,2.0634,2.0674,2.0717,2.0775,2.079,2.0811,2.0861,2.0885,2.0917,2.0955,2.0966,2.1017,2.1059,2.1101,2.1158,2.1178,2.1216,2.1227,2.1201,2.1205,2.1213,2.1212,2.1231,2.1236,2.1241,2.1241,2.1241,0,2.0635,2.0658,2.0718,2.074,2.0767,2.0802,2.0829,2.0871,2.0898,2.0951,2.0969,2.1013,2.1051,2.1117,2.1159,2.1203,2.1215,2.1219,2.1222,2.1211,2.1216,2.1214,2.1216,2.1217,2.1217,2.1217,2.1217,0,2.0634,2.0653,2.0689,2.0733,2.0764,2.08,2.0838,2.0855,2.0905,2.0933,2.0976,2.1006,2.1064,2.1108,2.1157,2.1187,2.121,2.1216,2.122,2.1209,2.1193,2.1202,2.1197,2.1215,2.1215,2.1215,2.1215,2.1215,2.0626,2.0648,2.0694,2.0734,2.0767,2.0802,2.0827,2.0863,2.0899,2.0949,2.0973,2.1016,2.1062,2.1131,2.116,2.1196,2.1202,2.1208,2.121,2.1211,2.1209,2.1188,2.1205,2.1205,2.1205,2.1205,2.1205,0,2.0626,2.0658,2.0694,2.0746,2.0778,2.0797,2.084,2.0866,2.0904,2.0944,2.0981,2.1031,2.1075,2.1121,2.1167,2.1187,2.1199,2.1197,2.1196,2.1203,2.12,2.1192,2.1187,2.1187,2.1187,2.1187,2.1187,2.1187,2.063,2.0668,2.0693,2.0748,2.078,2.0822,2.0845,2.0878,2.0911,2.0965,2.1001,2.1031,2.1075,2.1125,2.1166,2.1178,2.1194,2.1189,2.1205,2.1202,2.1203,2.1204,2.1196,2.1192,2.1192,2.1205,2.1205,2.1205]},{"header":{"parameterUnit":"m.s-1","parameterCategory":1,"la1":30.2991,"la2":30.254,"lo1":-89.0895,"lo2":-89.0444,"dy":0.0017,"dx":0.0017,"nx":28,"ny":28,"refTime":"2024-06-01T21:00:00:Z","depth":0,"parameterNumber":3,"parameterNumberName":"V-component_of_WINDS"},"data":[0,0,0,0,0,0,0,0,0,0,0,0,0,0,0,0,0,0,0,0,0,0,0,0,0,0,0,0,0,0,0,0,0,0,0,0,0,0,0,0,0,0,0,0,0,0,0,0,0,0,0,0,0,0,0,0,0,0,2.8916,2.8917,0,2.8989,2.899,2.8991,2.9046,2.9047,2.9047,2.9048,2.9117,2.9118,2.912,0,0,0,0,0,0,0,0,0,0,0,0,0,2.8819,2.882,2.8916,2.8917,2.8918,2.8989,2.899,2.8991,2.9046,2.9047,2.9047,2.9048,2.9117,2.9118,2.912,0,0,0,0,0,0,0,0,0,0,0,0,0,2.8873,2.8821,2.8916,2.8954,2.8958,2.8989,2.899,2.8991,2.9046,2.9047,2.9047,2.9048,2.9116,2.9118,2.912,2.9118,0,0,2.9126,2.9127,0,0,0,0,0,0,0,0,2.887,2.8877,2.8947,2.8951,2.8956,2.901,2.8982,2.9034,2.9046,2.9012,2.9048,2.9048,2.908,2.9085,2.9097,2.9121,2.9124,2.9127,2.9128,2.9129,2.9129,0,0,0,0,0,0,0,2.8866,2.8874,2.8945,2.8948,2.8954,2.8966,2.8974,2.8992,2.9041,2.9015,2.9019,2.9028,2.9083,2.9095,2.9099,2.9125,2.9127,2.9128,2.913,2.9131,2.915,2.9149,0,0,0,0,0,0,2.8857,2.887,2.8942,2.8947,2.8914,2.8967,2.8977,2.8991,2.9041,2.9049,2.9027,2.903,2.9091,2.9097,2.9102,2.9102,2.9129,2.9131,2.9132,2.9151,2.915,2.9149,0,0,0,0,0,0,2.8855,2.8863,2.894,2.891,2.8921,2.8968,2.8984,2.8992,2.9005,2.905,2.9058,2.9031,2.9092,2.9099,2.9114,2.9106,2.9132,2.9134,2.9152,2.9151,2.915,2.9103,0,0,0,0,0,0,2.8852,2.8862,2.8862,2.891,2.8922,2.8951,2.8984,2.8993,2.9009,2.9014,2.9056,2.9063,2.9093,2.911,2.9116,2.9109,2.9135,2.9153,2.9151,2.915,2.9105,2.91,2.9096,0,0,0,0,0,2.8848,2.8845,2.8862,2.887,2.8924,2.8951,2.8958,2.8994,2.9008,2.9008,2.9037,2.9062,2.9106,2.9111,2.9118,2.9111,2.9153,2.9152,2.915,2.9107,2.9101,2.9096,0,0,0,0,0,0,2.8793,2.8852,2.8871,2.8884,2.8912,2.896,2.8961,2.8986,2.9009,2.9012,2.9054,2.9063,2.9073,2.9094,2.9099,2.9112,2.9133,2.9132,2.9098,2.9092,2.9088,2.9082,2.9137,0,0,0,0,0,2.8783,2.8802,2.8851,2.8857,2.8871,2.8913,2.8926,2.8952,2.8982,2.8994,2.9024,2.9051,2.9071,2.9083,2.9104,2.9109,2.9118,2.9108,2.9103,2.9099,2.9098,2.9102,2.9098,2.9144,2.9144,2.9144,0,0,2.8761,2.8795,2.8804,2.8847,2.8872,2.8889,2.8923,2.8939,2.8952,2.8996,2.9012,2.9035,2.9068,2.9078,2.9084,2.9095,2.9087,2.9097,2.9093,2.9094,2.91,2.9095,2.9091,2.9143,2.9143,2.9143,0,0,2.873,2.8758,2.8767,2.8792,2.883,2.8859,2.8861,2.8905,2.8923,2.894,2.8974,2.8989,2.9022,2.9044,2.906,2.9038,2.9062,2.9044,2.9019,2.9023,2.9019,2.9016,2.9008,2.9005,2.9043,2.9043,2.9043,0,2.8697,2.8726,2.8767,2.8782,2.88,2.8843,2.8851,2.8872,2.8914,2.8925,2.8938,2.8981,2.9006,2.9022,2.9017,2.9029,2.9031,2.9039,2.9017,2.9014,2.9012,2.9004,2.9001,2.904,2.904,2.9041,2.9041,0,2.8684,2.8703,2.8705,2.8748,2.8765,2.8776,2.8818,2.8831,2.8855,2.8882,2.8899,2.8931,2.8959,2.8965,2.8987,2.8984,2.899,2.9009,2.9031,2.9004,2.8998,2.8996,2.9037,2.9038,2.9038,2.9039,0,0,2.8619,2.8686,2.8685,2.8705,2.8751,2.8766,2.8779,2.8809,2.8819,2.8846,2.8857,2.8886,2.8904,2.8922,2.8947,2.8951,2.8932,2.897,2.8971,2.8961,2.8929,2.8914,2.891,2.8948,2.8947,2.8947,2.8926,0,2.8595,2.8623,2.8661,2.8675,2.8693,2.8735,2.8746,2.8774,2.88,2.8818,2.8846,2.8865,2.8888,2.8899,2.8904,2.8933,2.8925,2.8935,2.8957,2.8957,2.8947,2.8907,2.8891,2.8869,2.8924,2.8924,2.8923,0,2.857,2.8598,2.8615,2.866,2.8669,2.8679,2.8709,2.8726,2.8759,2.8778,2.8798,2.8827,2.8841,2.8861,2.8881,2.8887,2.8898,2.8914,2.8914,2.8917,2.8938,2.8908,2.8863,2.886,2.892,2.892,2.892,0,2.8521,2.8562,2.8578,2.8594,2.8647,2.8653,2.8675,2.8709,2.8725,2.8751,2.8761,2.8788,2.8802,2.8821,2.8856,2.8867,2.8872,2.8895,2.8886,2.8885,2.8884,2.8884,2.884,2.8893,2.8893,2.8893,2.8893,0,2.8489,2.8498,2.8557,2.8566,2.8577,2.862,2.8628,2.8654,2.8684,2.8698,2.8735,2.8747,2.8793,2.8809,2.8836,2.8849,2.8855,2.8869,2.8876,2.8865,2.8863,2.8873,2.8875,2.8892,2.8892,2.8892,2.8892,0,2.8436,2.8476,2.8495,2.8545,2.8558,2.8563,2.8605,2.8615,2.8643,2.8661,2.8667,2.8711,2.8733,2.877,2.8802,2.882,2.8827,2.8839,2.8816,2.882,2.881,2.881,2.877,2.8767,2.8821,2.8821,2.882,0,2.8413,2.842,2.8472,2.8485,2.8506,2.8527,2.8544,2.8586,2.8602,2.8641,2.8646,2.8671,2.8694,2.8726,2.876,2.8785,2.8797,2.8782,2.8801,2.879,2.8797,2.8795,2.8796,2.8777,2.8776,2.8775,2.8775,0,2.8367,2.8387,2.8411,2.8442,2.8462,2.8487,2.8515,2.8523,2.8571,2.8587,2.8611,2.8629,2.8663,2.8687,2.8717,2.8738,2.8764,2.8769,2.8768,2.8757,2.8743,2.875,2.8803,2.8769,2.877,2.877,2.877,2.8771,2.8328,2.8337,2.8375,2.84,2.8426,2.8451,2.8463,2.8494,2.8516,2.8548,2.8572,2.8594,2.8627,2.867,2.869,2.8707,2.8719,2.8717,2.8717,2.8716,2.8712,2.8741,2.8712,2.8713,2.8713,2.8713,2.8713,0,2.8284,2.8311,2.8334,2.8373,2.8393,2.8418,2.845,2.8464,2.8484,2.8514,2.8536,2.8564,2.8588,2.8624,2.865,2.8657,2.867,2.8662,2.8662,2.8666,2.87,2.8698,2.8652,2.8652,2.8652,2.8652,2.8652,2.8652,2.8264,2.8281,2.8305,2.8335,2.8362,2.8386,2.8402,2.8424,2.8448,2.8478,2.8499,2.8524,2.8556,2.8585,2.8608,2.8618,2.8625,2.8614,2.8628,2.8658,2.8664,2.8669,2.8668,2.8616,2.8616,2.8593,2.8593,2.8592]}]]